Probability
1 3 8 17 19 10 3 1 0 0 0 0 0 0 0 0 0 0 0 0 1 3 5 6 8 8 7 6 7 7 7 7 6 5 5 7 8 8 7 6 6 6 5 4 3 4 7 9 10
3 5 11 16 14 7 1 0 0 0 0 0 0 0 0 0 0 0 0 0 1 2 5 7 8 9 8 8 8 8 9 9 8 7 8 8 10 9 8 7 6 5 4 3 3 3 6 8 10
9 12 16 15 8 3 0 0 0 0 0 0 0 0 0 0 0 0 0 0 0 2 4 7 9 10 9 9 9 9 11 11 10 9 10 12 12 11 9 8 6 5 4 4 4 4 5 8 10
17 19 19 12 4 1 0 0 0 0 0 0 0 0 0 0 0 0 0 0 0 2 5 7 9 11 11 10 10 10 11 11 11 10 11 13 14 13 11 10 8 6 5 6 6 4 5 8 10
20 19 13 6 2 0 0 0 0 0 0 0 0 1 1 0 0 0 0 0 1 3 6 7 9 12 12 10 8 8 10 12 12 10 10 12 13 13 14 14 10 7 6 6 6 5 5 8 11
17 13 6 2 1 0 0 0 0 0 0 0 0 1 1 0 0 0 0 0 1 3 5 5 6 9 10 9 7 7 10 13 13 11 10 11 12 12 13 13 11 8 7 6 5 5 6 7 9
14 9 3 1 0 0 0 0 0 0 0 0 0 1 1 0 0 0 0 0 0 1 2 2 4 5 6 6 5 6 9 13 13 10 10 13 14 13 12 12 11 9 7 6 5 5 5 6 7
10 6 2 0 0 0 0 0 0 0 0 0 0 1 1 0 0 1 0 0 0 0 0 1 4 4 3 3 5 7 10 12 10 8 9 12 14 12 11 11 12 10 8 7 6 5 4 5 6
6 4 2 0 0 0 0 0 0 0 0 0 1 1 1 0 0 0 0 0 0 0 0 1 4 4 3 2 4 8 10 9 7 6 7 9 10 9 8 10 12 10 9 9 8 6 6 6 6
3 3 1 0 0 0 0 0 0 0 0 0 1 1 0 0 0 0 0 0 0 0 0 1 3 4 3 3 4 7 7 6 5 5 6 7 6 5 5 8 10 9 10 10 9 8 7 7 6
1 1 0 0 0 0 0 0 0 0 0 0 1 2 1 1 1 1 1 0 0 0 0 1 3 4 4 5 6 7 5 4 5 7 7 7 6 4 4 6 7 8 10 10 9 7 6 6 6
0 0 0 0 0 0 0 0 0 0 0 0 1 2 2 1 1 1 1 0 0 0 0 1 3 6 7 8 8 7 5 4 5 7 8 8 6 5 7 9 9 9 10 10 9 7 5 4 4
0 0 0 0 0 0 0 0 0 0 1 0 0 1 1 2 2 2 1 1 1 0 1 2 4 7 10 11 11 10 7 5 5 7 8 7 7 7 9 12 11 10 11 11 10 8 7 7 7
0 0 0 0 0 0 0 0 0 0 0 0 0 0 1 2 3 2 2 2 2 2 2 3 4 7 11 11 12 11 9 8 6 6 7 7 7 7 9 11 12 11 10 11 10 10 10 11 10
1 0 0 0 0 0 0 0 0 0 0 0 0 0 0 1 2 3 3 3 4 4 5 5 5 7 9 9 9 8 8 7 6 5 6 7 7 7 8 10 11 10 9 10 10 10 11 10 9
1 0 0 0 0 0 0 0 0 0 0 0 0 0 0 0 1 2 4 5 7 8 9 8 7 8 7 7 6 6 6 7 6 5 5 5 5 5 6 9 10 9 9 8 9 9 8 8 7
1 0 0 0 0 0 0 0 1 1 1 0 1 1 1 1 2 3 6 8 10 12 13 11 9 10 10 8 7 7 7 7 6 5 4 4 3 3 5 7 8 8 7 6 6 7 6 6 7
0 0 0 0 1 1 1 1 3 3 2 1 1 1 2 4 3 4 8 11 12 14 16 15 13 14 14 11 8 7 6 6 6 6 6 5 4 4 4 5 6 7 6 5 5 5 5 5 6
0 0 0 0 1 2 2 3 6 6 5 4 3 3 6 9 8 8 11 13 14 16 19 21 19 18 18 14 10 7 6 6 6 8 10 11 8 6 6 5 5 6 6 6 6 6 4 3 4
0 0 0 0 1 1 2 4 7 8 8 7 5 6 10 13 14 14 14 14 15 17 21 25 26 23 20 16 13 10 9 7 7 10 14 14 11 8 8 8 7 7 7 7 8 7 4 3 3
0 0 0 0 0 1 2 4 7 9 9 9 7 7 9 13 16 17 16 14 14 17 23 28 32 29 21 17 15 14 12 11 10 13 15 15 12 10 10 10 8 7 7 8 9 8 6 5 4
0 0 0 0 0 0 1 3 8 10 9 8 7 5 5 9 13 16 17 17 16 19 24 31 35 31 24 19 16 16 16 16 16 18 18 15 14 13 12 9 8 7 7 8 8 8 8 7 7
0 0 0 0 0 0 0 2 6 8 7 6 6 5 6 8 11 16 20 21 19 19 23 29 34 32 27 22 19 18 18 19 20 21 20 18 17 16 13 11 10 8 7 6 8 9 11 11 11
0 0 0 0 0 0 0 2 4 5 4 4 6 8 9 10 11 16 22 23 20 19 21 26 31 32 29 25 22 21 20 20 21 22 21 20 19 20 20 20 19 15 10 9 10 11 13 14 15
0 0 0 0 0 0 1 3 4 3 2 3 7 11 12 11 11 16 22 24 22 20 20 24 29 30 28 25 24 22 21 21 22 23 23 21 21 23 26 28 27 21 16 14 13 13 13 14 16
0 0 0 0 0 0 2 5 5 3 2 4 8 12 13 12 12 16 20 23 22 20 19 22 27 29 27 25 24 23 22 20 20 21 21 21 22 23 26 28 27 23 18 15 14 14 12 13 15
0 0 0 0 0 0 2 6 7 5 4 6 10 14 14 13 12 14 15 17 18 19 19 21 27 30 28 26 25 23 21 18 17 17 19 21 23 23 25 26 25 23 19 15 13 12 12 13 14
1 1 0 0 0 0 3 6 7 6 6 9 14 16 16 14 12 11 10 12 16 19 20 22 27 31 29 26 24 22 20 19 18 18 20 22 24 24 24 24 22 21 20 17 12 11 12 13 13
1 1 0 0 0 0 2 6 7 6 7 11 16 19 19 18 16 12 10 12 17 21 22 24 27 29 28 26 23 22 21 20 18 18 18 19 20 22 22 21 19 19 19 17 14 12 12 13 13
1 0 0 0 0 0 2 6 7 6 7 12 17 21 22 22 18 13 12 16 19 21 24 25 25 26 28 26 23 22 22 18 15 14 14 15 18 20 20 19 18 17 16 16 14 12 12 13 14
Wind_Speed
9 10 8 6 5 3 6 10 12 12 12 12 12 13 15 15 11 8 4 7 9 9 9 8 8 7 7 7 7 7 6 7 7 6 6 6 6 6 5 5 6 6 6 6 6 7 8 10 11
9 9 7 5 4 3 9 11 12 12 10 10 13 14 15 14 12 8 6 6 9 10 8 8 8 8 8 8 8 8 7 7 7 7 7 7 7 7 7 6 6 6 6 6 6 7 9 10 11
11 10 6 5 2 7 10 10 10 9 9 11 12 13 12 10 10 7 6 7 9 10 9 8 8 8 7 7 7 8 7 7 7 7 7 7 7 7 7 6 6 6 7 6 6 8 10 10 10
7 6 6 2 7 11 11 9 9 9 11 11 11 11 11 10 9 8 7 8 9 9 9 9 8 7 7 7 7 7 7 7 7 7 7 7 6 6 7 6 6 7 7 7 7 8 9 10 9
6 6 4 3 10 11 10 10 9 10 11 12 14 13 12 12 10 8 7 8 8 9 9 9 8 7 7 7 6 7 7 7 7 7 7 7 6 6 6 6 7 7 7 8 8 8 9 10 9
4 4 2 5 11 10 10 10 10 11 11 12 13 14 11 8 8 8 8 7 8 10 9 9 8 7 7 7 7 8 7 8 7 7 7 6 5 4 6 6 6 7 8 9 9 9 9 9 8
5 4 1 6 10 9 10 10 10 10 11 11 11 12 9 7 7 8 8 7 8 9 9 8 8 7 7 8 8 8 8 7 7 6 6 6 5 6 7 7 7 7 7 9 9 9 8 7 7
6 4 3 6 8 9 9 10 11 11 11 10 9 9 8 7 7 8 8 8 7 7 7 7 7 6 6 7 8 8 7 7 7 6 5 5 5 7 8 7 7 6 7 10 10 9 8 6 6
7 3 4 7 8 8 9 10 10 10 11 12 13 13 11 9 8 7 7 7 7 7 6 6 6 5 5 6 8 7 6 6 6 4 5 3 2 4 5 7 8 7 8 10 9 8 7 6 5
1 3 5 5 6 7 8 9 8 8 10 12 13 13 12 9 7 7 7 8 8 7 7 7 7 5 5 4 4 3 4 4 3 3 4 2 2 3 5 7 8 9 10 10 8 6 5 4 3
2 3 3 4 6 7 8 9 8 8 9 11 12 11 10 9 7 7 7 8 7 7 7 8 7 5 5 4 3 3 3 3 3 4 4 3 2 2 3 3 4 5 7 5 6 5 2 2 2
2 2 3 5 6 6 7 9 9 10 10 12 12 11 10 7 6 7 8 8 7 8 8 8 7 7 6 4 3 3 3 3 3 4 4 3 2 3 3 2 3 3 2 3 3 2 3 2 3
1 2 3 4 5 7 9 7 9 10 11 12 12 10 9 8 7 7 8 8 8 7 8 8 7 6 5 3 2 4 4 4 4 3 4 4 3 4 4 3 3 3 3 3 3 3 3 2 3
2 3 2 0 4 7 9 4 6 9 11 11 11 9 9 7 7 8 8 7 7 7 7 7 7 6 4 3 2 2 3 3 4 4 4 4 3 3 3 3 3 2 3 3 2 3 2 2 3
2 2 3 2 3 5 7 5 3 7 10 10 10 8 8 7 7 7 7 6 7 7 6 6 6 6 5 3 2 3 3 4 4 3 4 4 4 3 2 2 2 2 2 3 2 2 2 3 3
5 4 3 4 3 5 5 3 3 6 8 9 9 9 8 7 7 6 7 7 7 7 6 5 5 6 4 3 3 2 3 4 3 3 3 4 4 3 2 2 2 2 1 1 2 2 2 2 2
6 5 3 4 3 2 5 5 4 7 8 8 8 9 9 8 7 7 7 7 7 7 6 5 5 5 4 3 2 3 3 3 3 3 3 3 3 3 2 2 2 1 1 1 2 2 1 1 1
6 6 5 4 2 2 3 7 8 7 7 8 7 8 8 8 8 8 7 8 8 7 6 5 5 4 3 3 2 2 3 3 2 3 3 3 2 2 1 2 2 2 2 2 2 1 1 0 0
7 7 6 5 2 2 3 5 7 7 6 7 7 8 8 8 9 8 8 8 8 8 6 5 4 3 2 1 1 1 2 2 2 3 4 3 3 3 2 2 2 2 2 2 1 1 0 0 0
8 8 7 4 3 3 2 1 3 6 7 6 6 7 8 7 7 8 8 7 7 7 6 5 4 3 2 1 1 1 2 1 2 3 3 3 2 2 2 2 2 2 2 1 1 1 0 1 1
8 7 7 5 5 5 4 4 3 3 6 8 7 8 9 9 8 8 8 8 7 7 6 5 4 4 2 2 1 1 1 1 2 2 2 2 2 2 3 3 2 2 1 1 0 1 1 1 1
8 7 8 7 7 6 6 3 4 5 6 8 8 7 7 8 8 8 8 8 8 8 7 6 5 4 3 2 1 1 1 2 2 2 2 2 1 2 2 3 2 2 2 1 1 1 1 1 1
9 8 8 10 9 7 7 5 4 7 7 7 7 8 7 7 8 8 9 8 7 8 8 7 5 4 3 2 1 1 1 1 1 2 2 1 1 2 2 2 2 2 1 1 2 2 2 2 2
8 9 9 8 7 8 9 6 3 6 8 9 8 8 8 8 9 9 8 9 7 7 7 8 7 5 3 2 2 2 2 2 1 1 1 1 1 1 2 2 2 1 1 1 1 1 1 1 2
10 8 4 5 5 7 7 4 3 6 8 8 9 10 9 9 10 9 9 9 8 7 7 7 7 5 4 3 2 2 1 1 1 0 0 0 1 1 1 2 1 1 1 1 1 0 1 1 1
9 9 6 5 6 5 3 1 3 6 7 7 8 10 10 9 9 9 9 9 8 8 7 7 7 5 4 3 3 2 2 1 0 0 0 1 1 1 1 2 1 2 2 1 1 1 0 1 1
10 9 8 8 10 7 2 4 6 6 6 8 9 10 9 9 9 9 8 9 8 7 7 7 7 5 4 3 3 2 1 0 1 1 1 1 1 1 1 1 1 1 2 2 1 1 1 1 1
11 10 7 6 6 7 4 2 3 5 7 7 9 9 9 9 9 8 7 7 8 7 7 6 6 5 5 4 3 3 2 1 1 1 2 2 3 2 2 1 1 1 1 1 1 1 1 1 1
11 11 9 6 6 7 5 0 5 6 5 7 9 9 9 9 8 7 7 7 8 7 7 6 5 4 4 4 3 2 2 2 1 1 1 2 2 1 2 1 1 1 1 1 1 1 0 0 1
10 11 10 7 6 6 6 1 3 5 6 5 7 8 9 9 8 8 8 7 7 6 6 5 5 4 3 3 3 2 2 2 1 1 1 2 1 1 1 1 1 1 1 1 1 2 1 0 0
Wind_Direction
191 208 217 239 246 240 53 52 51 52 55 53 51 55 53 51 54 73 77 68 86 93 95 94 80 67 60 61 70 78 88 93 91 85 82 91 94 100 106 117 132 142 148 149 152 153 158 160 158
216 215 230 248 264 58 61 56 52 56 59 63 63 63 62 60 69 82 78 76 89 95 91 87 83 72 68 70 75 80 87 92 93 91 87 89 93 94 94 99 120 131 135 138 143 153 156 155 154
249 242 252 243 7 55 58 63 62 64 65 67 71 64 58 61 66 77 88 94 87 90 91 90 86 78 72 72 76 84 88 91 94 93 91 89 93 97 96 94 109 126 127 125 131 146 151 149 152
239 241 240 265 52 58 64 63 65 67 65 67 73 72 66 63 73 87 100 95 94 97 96 95 90 85 82 80 85 88 89 92 97 94 89 88 89 95 98 96 102 123 125 121 120 130 139 143 148
246 258 255 58 64 64 67 68 68 66 69 70 78 82 76 71 82 93 98 92 96 98 103 107 104 96 95 93 95 97 96 95 97 99 94 87 87 95 103 104 104 121 119 116 113 121 130 138 147
260 264 328 71 72 61 67 67 71 65 70 79 86 87 80 81 90 93 88 85 92 101 104 115 122 116 110 107 100 101 99 97 100 98 94 89 87 104 117 113 108 117 117 114 114 118 123 132 145
260 296 348 69 82 67 63 63 66 71 67 70 85 92 96 88 87 92 91 83 87 99 109 120 128 127 124 114 107 106 101 102 106 104 100 93 83 96 113 117 116 118 125 126 122 121 121 124 137
261 278 355 65 75 77 77 72 68 68 65 70 82 93 101 104 97 89 86 80 76 86 98 107 109 119 127 124 119 117 116 114 113 107 104 103 91 88 104 114 117 124 130 133 130 129 130 136 150
267 310 29 53 71 81 84 83 82 80 77 70 74 93 106 110 100 94 88 82 72 72 80 88 97 104 117 120 123 132 131 122 120 112 113 110 92 89 92 104 115 121 129 132 136 140 145 153 164
273 31 52 55 78 86 84 83 88 88 86 86 88 98 109 110 106 98 90 83 77 70 72 71 70 71 84 89 113 128 123 116 109 88 102 100 77 88 100 109 117 123 131 133 138 142 154 174 170
61 42 59 70 78 87 90 86 82 92 95 97 106 112 114 112 106 94 84 81 80 79 71 71 72 65 59 67 82 84 89 97 91 80 76 74 71 88 95 108 117 124 134 139 134 143 150 134 113
68 52 51 75 77 86 86 88 87 80 90 106 114 116 114 115 108 101 93 87 80 75 74 66 62 65 56 51 56 75 78 80 78 71 59 59 52 52 58 70 80 99 106 114 119 111 99 97 98
333 51 44 84 109 92 73 74 92 93 102 109 117 117 117 113 106 99 94 91 84 80 78 74 68 69 64 54 45 70 70 72 83 84 69 61 63 62 61 54 61 72 84 91 86 87 96 94 97
349 24 357 171 109 112 103 89 88 106 115 117 119 119 118 115 110 102 96 92 85 80 80 84 84 82 70 65 57 65 77 76 70 72 72 70 73 75 82 78 70 73 80 84 88 97 96 81 79
327 284 267 256 159 131 121 101 101 120 125 128 129 129 127 122 112 108 108 103 96 87 83 83 91 84 70 59 53 79 82 84 78 79 75 76 79 80 80 90 95 89 96 104 91 82 93 97 93
294 268 267 286 241 149 130 118 180 150 137 139 142 140 134 127 123 118 114 107 103 97 86 75 80 88 85 64 47 55 74 82 83 82 78 75 74 71 68 80 89 85 89 98 109 89 76 88 100
288 274 255 248 247 173 153 141 180 171 157 149 147 146 148 144 136 130 126 118 108 99 92 86 73 82 93 92 79 71 71 72 71 75 74 72 79 74 64 70 82 113 96 77 80 75 72 93 124
266 275 265 253 173 162 150 152 180 186 171 157 155 151 154 152 149 144 134 124 117 111 103 100 96 88 99 100 83 69 69 75 76 81 83 69 65 64 45 92 61 69 81 73 65 59 42 72 252
258 269 279 270 225 215 205 169 174 182 181 167 162 156 153 149 147 143 140 132 124 118 112 104 103 98 87 75 81 82 81 77 93 97 89 75 53 48 38 62 77 68 78 94 117 100 248 305 85
265 269 273 275 293 304 304 168 179 206 181 176 172 153 143 143 141 141 140 134 128 123 123 122 118 115 107 93 83 86 87 78 88 76 87 79 61 48 65 67 71 77 77 67 76 47 292 258 126
266 273 286 281 269 254 246 255 226 210 173 175 166 158 155 158 156 155 152 144 138 132 130 124 116 116 122 123 114 97 101 85 75 90 89 68 54 60 40 41 38 63 84 77 32 351 359 331 318
271 274 277 277 268 262 251 246 207 218 205 180 167 161 157 154 161 161 151 145 139 134 126 115 121 120 113 107 91 122 118 94 82 93 99 107 96 85 74 66 41 22 18 34 323 50 326 297 284
269 284 280 280 276 265 250 244 196 195 195 183 167 157 154 153 155 151 152 146 144 140 137 132 129 122 115 115 89 73 76 96 91 98 113 119 107 98 85 76 58 41 15 6 7 26 355 337 324
268 270 270 276 275 269 262 251 198 191 183 178 166 157 152 150 143 139 143 143 144 142 141 139 134 131 128 120 92 70 59 63 69 79 106 117 110 108 101 91 70 58 359 17 2 350 346 334 339
248 259 276 276 260 255 260 256 162 169 153 157 157 154 152 148 142 142 142 142 143 140 139 136 135 139 146 142 127 112 89 98 145 106 87 44 94 67 50 66 62 41 8 20 345 332 327 331 330
250 252 252 263 266 260 244 199 141 138 131 136 143 145 144 143 140 142 144 143 142 140 135 132 135 138 143 145 143 144 168 209 222 315 13 11 36 66 57 62 51 28 12 8 358 344 287 337 318
252 253 262 265 271 277 226 150 137 138 138 140 139 138 142 142 142 145 148 145 144 142 135 133 133 137 144 145 139 146 153 8 32 26 13 47 42 76 72 62 53 36 17 4 4 351 350 1 318
249 266 268 266 285 284 270 187 156 166 168 158 149 147 148 148 145 145 144 144 142 140 134 134 133 138 144 142 154 152 134 120 94 49 31 38 32 29 42 50 45 28 14 6 351 326 7 358 331
227 239 250 260 270 286 296 331 150 168 167 161 151 149 154 151 148 146 143 140 139 138 135 132 131 136 143 143 145 127 137 143 124 93 72 65 47 26 20 16 17 12 354 338 328 322 12 349 322
243 248 250 249 250 265 273 228 128 135 138 143 140 133 139 145 148 144 140 136 136 136 134 134 139 142 141 133 134 130 127 115 95 82 80 81 69 23 16 0 347 331 335 330 319 315 2 10 347